SEH9594 LGMT-LGHI

Flight info

Callsign SEH9594
Flight time 0h 23m
Altitude 12000
Route RIKSO DCT MARIK
Aircraft AT76/M-SDFGIRY/S

Departure

Time 2026-04-27 16:22
Airport Mytilene International Airport (LGMT)

Arrival

Time 2026-04-27 16:46
Airport Chios Island National Airport (LGHI)
Time Latitude Longitude Altitude Speed Heading
2026-04-27 16:03 39.06106 26.59840 47 ft 0 kts 59°
2026-04-27 16:15 39.06101 26.59827 44 ft 3 kts 69°
2026-04-27 16:16 39.06094 26.59786 46 ft 3 kts 144°
2026-04-27 16:16 39.06014 26.59860 45 ft 11 kts 144°
2026-04-27 16:17 39.05969 26.59897 44 ft 1 kts 185°
2026-04-27 16:17 39.06007 26.59859 45 ft 6 kts 313°
2026-04-27 16:18 39.06012 26.59841 45 ft 3 kts 281°
2026-04-27 16:18 39.05938 26.59787 45 ft 12 kts 197°
2026-04-27 16:19 39.05842 26.59812 43 ft 18 kts 149°
2026-04-27 16:19 39.05724 26.59902 39 ft 21 kts 147°
2026-04-27 16:20 39.05346 26.60205 27 ft 21 kts 147°
2026-04-27 16:20 39.05225 26.60304 25 ft 20 kts 148°
2026-04-27 16:20 39.04987 26.60492 19 ft 20 kts 150°
2026-04-27 16:21 39.04888 26.60544 16 ft 7 kts 112°
2026-04-27 16:21 39.05022 26.60466 21 ft 46 kts 328°
2026-04-27 16:22 39.05457 26.60117 30 ft 100 kts 328°
2026-04-27 16:22 39.06900 26.58945 562 ft 130 kts 324°
2026-04-27 16:22 39.07654 26.58285 1051 ft 133 kts 328°
2026-04-27 16:23 39.08435 26.57589 1473 ft 142 kts 326°
2026-04-27 16:23 39.08633 26.55148 2242 ft 159 kts 248°
2026-04-27 16:23 39.08065 26.53928 2559 ft 165 kts 220°
2026-04-27 16:24 39.07053 26.53282 2864 ft 163 kts 208°
2026-04-27 16:24 39.05088 26.51607 3491 ft 176 kts 216°
2026-04-27 16:25 39.03000 26.49783 4121 ft 187 kts 216°
2026-04-27 16:25 39.00783 26.48010 4824 ft 190 kts 212°
2026-04-27 16:26 38.98475 26.46317 5541 ft 189 kts 213°
2026-04-27 16:26 38.96162 26.44552 6099 ft 196 kts 213°
2026-04-27 16:27 38.93816 26.42751 6739 ft 197 kts 214°
2026-04-27 16:27 38.90284 26.40040 7683 ft 198 kts 213°
2026-04-27 16:28 38.87913 26.38224 8206 ft 203 kts 213°
2026-04-27 16:28 38.85419 26.36312 8637 ft 210 kts 213°
2026-04-27 16:29 38.81646 26.33427 9434 ft 211 kts 212°
2026-04-27 16:30 38.79131 26.31502 9934 ft 212 kts 212°
2026-04-27 16:30 38.76584 26.29556 10379 ft 214 kts 212°
2026-04-27 16:31 38.72720 26.26608 11026 ft 217 kts 213°
2026-04-27 16:31 38.70115 26.24623 11450 ft 219 kts 213°
2026-04-27 16:32 38.67486 26.22620 11848 ft 221 kts 213°
2026-04-27 16:32 38.66147 26.21599 11952 ft 227 kts 213°
2026-04-27 16:33 38.63357 26.19473 12031 ft 240 kts 213°
2026-04-27 16:33 38.61908 26.18368 12044 ft 245 kts 213°
2026-04-27 16:33 38.60426 26.17243 12048 ft 250 kts 213°
2026-04-27 16:33 38.58920 26.16101 12054 ft 254 kts 213°
2026-04-27 16:34 38.57387 26.14935 11893 ft 261 kts 213°
2026-04-27 16:34 38.55978 26.13860 11646 ft 265 kts 213°
2026-04-27 16:34 38.54382 26.12644 11355 ft 269 kts 213°
2026-04-27 16:34 38.52761 26.11421 11061 ft 272 kts 212°
2026-04-27 16:35 38.51123 26.10190 10770 ft 274 kts 212°
2026-04-27 16:35 38.49481 26.08944 10461 ft 275 kts 213°
2026-04-27 16:35 38.46205 26.06437 9884 ft 274 kts 213°
2026-04-27 16:36 38.44568 26.05182 9576 ft 274 kts 213°
2026-04-27 16:36 38.42929 26.03933 9269 ft 275 kts 213°
2026-04-27 16:36 38.41285 26.02696 8962 ft 274 kts 213°
2026-04-27 16:36 38.39640 26.01471 8651 ft 274 kts 213°
2026-04-27 16:37 38.38036 26.00282 8360 ft 274 kts 212°
2026-04-27 16:37 38.36396 25.99055 8024 ft 273 kts 213°
2026-04-27 16:37 38.34765 25.97827 7644 ft 272 kts 213°
2026-04-27 16:37 38.33145 25.96608 7274 ft 270 kts 212°
2026-04-27 16:38 38.32072 25.95803 7031 ft 270 kts 213°
2026-04-27 16:38 38.30459 25.94591 6671 ft 269 kts 213°
2026-04-27 16:38 38.28851 25.93380 6300 ft 268 kts 213°
2026-04-27 16:38 38.27248 25.92190 6025 ft 262 kts 210°
2026-04-27 16:39 38.25502 25.91678 5761 ft 261 kts 178°
2026-04-27 16:39 38.23809 25.92407 5464 ft 260 kts 145°
2026-04-27 16:39 38.22663 25.93925 5188 ft 254 kts 126°
2026-04-27 16:39 38.21617 25.95728 4894 ft 253 kts 124°
2026-04-27 16:40 38.20606 25.97554 4622 ft 251 kts 123°
2026-04-27 16:40 38.19617 25.99373 4357 ft 248 kts 123°
2026-04-27 16:40 38.18646 26.01176 4117 ft 246 kts 123°
2026-04-27 16:40 38.17684 26.02966 3855 ft 244 kts 122°
2026-04-27 16:41 38.16727 26.04739 3619 ft 243 kts 122°
2026-04-27 16:41 38.15800 26.06478 3309 ft 226 kts 117°
2026-04-27 16:41 38.15501 26.08279 2976 ft 204 kts 77°
2026-04-27 16:41 38.16137 26.09755 2665 ft 187 kts 37°
2026-04-27 16:42 38.17230 26.10435 2480 ft 169 kts 18°
2026-04-27 16:42 38.18345 26.10926 2378 ft 169 kts 14°
2026-04-27 16:42 38.19485 26.11231 2345 ft 166 kts
2026-04-27 16:42 38.20626 26.11372 2317 ft 164 kts
2026-04-27 16:43 38.21737 26.11589 2204 ft 161 kts
2026-04-27 16:43 38.22848 26.11840 1973 ft 162 kts
2026-04-27 16:43 38.23958 26.12056 1781 ft 161 kts
2026-04-27 16:43 38.25067 26.12276 1574 ft 159 kts
2026-04-27 16:44 38.26134 26.12486 1377 ft 152 kts
2026-04-27 16:44 38.27156 26.12694 1176 ft 145 kts
2026-04-27 16:44 38.28129 26.12896 1013 ft 139 kts
2026-04-27 16:44 38.29064 26.13092 865 ft 132 kts 10°
2026-04-27 16:45 38.29928 26.13254 699 ft 120 kts 10°
2026-04-27 16:45 38.30725 26.13424 639 ft 117 kts 11°
2026-04-27 16:45 38.31522 26.13553 540 ft 114 kts
2026-04-27 16:45 38.32297 26.13650 368 ft 112 kts
2026-04-27 16:46 38.33067 26.13784 180 ft 113 kts
2026-04-27 16:46 38.33832 26.13945 25 ft 107 kts 12°
2026-04-27 16:46 38.34414 26.14075 13 ft 44 kts
2026-04-27 16:46 38.34557 26.14115 15 ft 5 kts 48°
2026-04-27 16:47 38.34558 26.14125 16 ft 1 kts 94°
2026-04-27 16:47 38.34550 26.14142 15 ft 5 kts 142°
2026-04-27 16:47 38.34497 26.14189 15 ft 10 kts 158°
2026-04-27 16:47 38.34454 26.14205 14 ft 0 kts 158°
2026-04-27 16:48 38.34448 26.14214 14 ft 1 kts 119°
2026-04-27 16:48 38.34446 26.14221 14 ft 0 kts 109°